Starlink 6217

operational
NORAD ID: 57058 Int'l Des: 2023-088 Owner: SPXS Country: US Constellation: starlink
LEOCIRCULAR

关于 Starlink 6217

正在加载描述...

实时位置

正在加载3D地球...

即将过境

高度历史

Altitude vs Time

uPlot chart will show altitude changes over time

两行轨道根数

1 57058U 23088L 25306.07593377 -.00000367 00000-0 -12089-4 0 9995
2 57058 43.0049 80.8641 0001162 273.6143 86.4567 15.02534492131174
Epoch: Nov 2, 2025 • Age: 24 hours

当前状态

高度 562.2 km
速度 7.59 km/s
星下点 39.81°N, 64.56°E
发射日期 Jun 22, 2023
运行时间 2.3 years
类型 internet

技术详情

分类 Payload
质量 305.00 kg
干质量 290.00 kg
总质量 305.00 kg
长度 0.20 m
直径 2.80 m
跨度 9.00 m
形状 Box + pan
制造商 SPXS
平台类型 Starlink
阶段状态 In Orbit
所有者/国家 SPXS/US

大型星座

Loading constellations...